Dewpoint
17 16 15 14 14 13 13 13 13 14 14 14 15 16 16 16 16 17 16 17 17 18 19 20 20 21 22 24 26 28 28 28 27 27 27 28 29 32 37 39 40 41 45
16 14 14 12 12 12 12 12 13 13 14 14 15 15 15 16 16 16 16 16 17 17 18 19 20 19 21 24 25 27 28 28 28 26 27 29 30 31 34 38 39 43 43
14 13 12 12 12 11 12 12 13 14 14 15 15 16 16 17 16 16 16 16 16 17 18 19 19 20 22 23 24 27 27 27 29 28 28 30 30 32 34 38 40 42 43
13 11 11 11 12 12 13 14 14 15 15 15 16 16 18 17 16 16 16 16 19 21 22 22 22 23 23 24 24 26 26 28 30 29 30 30 30 32 35 39 37 40 41
10 11 11 12 13 13 14 15 15 16 16 16 17 17 17 17 16 18 21 24 24 24 24 24 25 26 28 27 26 29 28 30 30 30 29 31 30 32 33 38 36 38 41
10 11 12 13 13 14 15 15 15 16 16 17 17 17 18 16 22 25 25 29 27 24 23 23 23 25 24 26 27 29 33 31 31 30 31 31 31 30 34 36 34 33 35
11 11 12 12 14 14 15 15 15 16 16 16 17 18 18 19 24 26 27 29 28 27 26 25 23 20 25 24 27 28 28 28 29 31 30 30 34 31 35 36 34 34 32
11 11 12 13 14 15 15 15 16 16 16 17 18 19 19 19 25 26 27 28 26 25 25 24 24 24 25 26 27 27 27 27 27 25 28 30 32 34 34 36 37 34 35
11 11 12 14 14 15 15 15 16 16 17 18 18 18 19 19 24 25 26 29 27 26 25 24 24 25 28 29 29 29 27 27 28 30 31 32 33 33 32 34 35 33 33
11 12 13 14 14 15 15 15 17 17 17 17 18 19 21 20 23 25 25 27 28 27 26 25 27 26 28 30 30 30 30 29 28 28 28 30 31 31 31 36 37 33 32
12 13 13 14 14 15 15 17 17 17 17 19 19 19 19 21 22 26 27 27 29 29 28 28 28 28 28 30 31 30 30 32 34 34 31 30 32 31 32 35 36 36 32
13 13 13 14 14 15 17 17 17 18 21 20 20 20 20 20 23 25 26 26 28 30 31 32 30 30 30 29 30 31 30 30 33 33 33 31 31 31 32 34 36 37 36
13 14 14 14 15 17 17 18 19 20 20 20 19 20 20 21 22 25 27 28 31 32 29 30 30 31 33 33 33 31 31 30 32 30 32 29 31 32 31 34 34 34 34
15 16 16 16 19 17 18 18 20 20 20 19 20 21 22 22 22 23 26 32 29 28 28 29 29 31 31 32 31 30 32 33 32 31 32 32 34 32 33 33 33 33 32
15 16 18 18 19 20 20 20 21 20 21 23 23 24 24 23 25 28 30 26 27 28 27 28 27 28 29 30 30 30 31 32 31 33 33 31 32 32 31 32 32 33 32
15 16 18 19 19 20 20 20 21 21 23 23 23 23 25 27 27 30 27 27 27 25 26 25 26 27 28 29 28 28 30 30 31 32 32 32 31 33 32 32 32 32 31
16 18 18 18 19 19 19 19 18 19 22 22 23 24 24 25 29 27 26 26 25 24 23 23 24 25 27 27 31 29 29 31 32 31 31 30 33 32 32 30 31 31 31
15 17 18 18 18 19 18 19 19 19 18 19 21 23 23 25 27 25 25 25 22 23 23 23 23 23 25 26 26 29 31 31 31 31 32 32 33 32 32 31 32 32 31
14 16 18 18 17 18 19 19 18 18 19 19 19 21 22 27 25 25 25 23 23 23 23 24 24 24 24 26 27 27 32 30 33 32 32 32 32 33 32 32 33 33 32
14 16 18 16 16 17 18 18 17 17 18 19 18 20 22 26 22 22 23 23 23 23 24 24 25 25 25 26 27 28 28 32 31 32 32 32 32 33 32 32 33 33 31
14 14 17 16 16 18 18 17 18 18 18 18 19 21 24 23 23 22 23 23 24 24 25 25 26 26 26 27 28 28 28 29 32 32 32 32 33 31 33 33 33 33 31
13 14 15 15 16 17 18 17 18 18 18 18 19 20 23 23 23 23 23 24 25 26 26 27 27 27 27 27 28 29 28 28 30 32 33 32 32 33 33 32 32 30 29
14 14 15 15 16 17 17 18 18 18 18 18 19 19 22 22 24 23 24 24 25 26 26 27 27 27 28 28 29 30 29 28 29 33 31 33 32 32 32 30 29 28 27
13 14 14 15 16 16 17 17 17 18 17 18 18 20 21 22 24 24 24 25 25 25 26 27 27 27 28 27 29 31 31 32 33 33 34 33 32 32 31 29 28 27 27
13 13 14 14 14 14 15 15 15 16 16 17 17 20 21 22 24 25 25 25 25 25 25 27 28 28 28 27 27 28 30 32 33 33 34 33 32 31 30 29 27 27 27
12 12 13 13 13 13 13 13 13 14 15 15 17 19 21 22 23 26 26 25 25 25 26 26 27 27 27 29 29 30 31 33 33 35 33 33 32 30 29 28 26 27 28
Lifted_Index
11 11 13 15 17 19 20 21 22 22 22 22 21 21 22 22 22 21 20 18 18 17 16 15 14 14 14 13 13 12 12 12 11 11 11 12 12 11 10 9 8 6 5
11 12 13 15 17 19 20 21 22 22 22 21 21 21 21 21 21 20 19 18 18 17 17 16 15 14 14 14 13 13 12 12 11 11 11 12 12 12 11 9 8 7 6
12 13 14 16 18 20 21 21 21 21 21 21 21 21 21 20 19 18 18 17 17 17 17 16 15 14 14 14 13 13 13 12 12 11 11 11 12 12 11 10 8 7 6
13 14 15 17 19 20 21 21 21 20 20 20 20 20 20 19 18 17 17 17 17 17 16 15 15 14 14 14 13 13 13 12 11 11 11 11 11 11 11 9 7 7 6
14 15 17 19 20 20 21 20 20 20 20 20 20 20 19 17 16 16 16 16 15 15 15 15 14 14 14 13 13 13 12 12 11 11 11 11 11 11 11 9 7 6 6
15 16 18 19 20 20 20 20 19 19 19 19 19 19 18 16 15 15 15 14 14 14 14 14 14 14 14 13 13 13 12 12 11 11 11 11 12 12 11 9 7 6 6
17 18 19 20 20 20 20 20 19 19 19 19 19 18 16 15 14 14 13 13 13 13 13 14 14 14 14 14 13 13 12 12 12 11 11 12 12 12 11 10 8 7 6
18 19 19 20 20 20 20 19 19 19 18 18 18 17 15 14 14 13 13 12 12 12 12 13 13 13 13 13 13 13 12 12 12 12 12 12 12 12 12 10 9 7 7
19 19 20 20 20 20 19 19 19 18 18 18 17 16 14 14 14 13 12 12 11 11 11 12 12 12 13 13 12 12 12 12 12 12 12 12 13 13 12 11 9 7 6
19 20 20 20 20 19 19 19 19 18 18 18 17 15 14 14 14 13 12 12 11 11 11 11 11 11 12 12 12 11 11 11 11 11 12 12 12 13 12 11 9 7 6
20 20 20 20 20 19 19 19 18 18 18 17 16 14 13 14 14 13 13 12 11 11 10 10 10 10 11 11 11 11 11 11 11 11 11 12 12 12 12 11 10 8 7
20 20 20 20 19 19 19 18 18 18 17 16 14 13 13 13 13 13 13 12 11 11 10 10 10 10 10 10 11 11 11 11 11 11 11 11 12 12 12 12 10 9 8
20 20 19 19 19 19 18 18 18 17 17 15 13 12 12 12 12 13 13 12 12 11 11 11 10 9 9 10 10 11 11 11 10 10 10 10 11 12 12 12 11 9 9
19 19 19 19 19 18 18 18 18 18 17 15 13 12 12 12 12 12 13 12 12 12 12 12 11 10 9 9 10 10 10 10 10 10 10 10 11 11 12 12 11 9 8
19 19 19 18 18 18 17 17 18 18 17 15 14 13 13 12 12 12 13 13 14 14 14 13 12 12 10 10 9 10 10 10 10 10 10 10 11 11 12 12 11 9 8
19 19 18 18 18 17 17 17 17 17 16 15 14 14 14 14 13 13 14 14 15 15 15 14 13 13 12 10 10 9 10 10 10 10 10 11 11 11 11 11 11 9 8
19 18 18 18 18 17 17 16 15 14 14 13 14 14 15 14 13 14 14 15 15 16 15 15 14 14 13 11 10 10 10 10 10 10 10 11 11 11 11 11 11 10 9
19 18 18 18 18 18 17 16 15 13 12 12 13 14 14 14 13 14 15 15 15 16 16 16 15 14 13 12 11 10 10 10 11 11 10 11 11 10 10 11 11 10 10
19 19 18 18 18 18 17 16 14 13 12 12 13 13 13 13 13 14 15 15 16 16 16 16 16 15 14 13 11 10 10 10 11 11 11 11 11 10 10 10 11 11 10
19 19 19 18 18 17 16 15 14 13 13 13 13 13 13 13 13 13 15 15 16 16 17 16 16 15 14 13 12 11 10 11 11 11 11 11 11 11 10 10 10 10 10
19 19 19 18 17 17 15 14 13 13 13 13 13 13 13 13 13 14 15 15 16 16 17 16 16 15 14 13 12 11 11 11 11 11 11 11 11 11 10 10 10 10 10
19 18 18 17 17 16 15 14 14 13 13 13 13 13 13 13 14 14 15 16 16 16 16 16 15 15 14 13 12 11 11 11 11 11 11 11 11 11 10 10 10 10 10
19 18 17 16 15 15 14 14 14 14 14 14 13 13 13 13 14 15 15 16 16 16 16 16 15 15 14 13 12 11 11 11 11 11 11 11 11 11 10 10 9 9 9
18 17 16 15 14 14 14 14 14 14 14 14 13 13 13 14 14 15 15 15 16 16 16 15 15 14 13 13 12 11 11 11 11 11 11 12 12 11 10 10 9 9 9
17 16 15 15 14 14 14 14 14 14 13 13 13 13 13 14 14 15 15 15 15 15 15 15 14 14 13 12 12 11 10 10 11 11 11 12 12 11 11 10 9 9 8
16 15 15 15 14 14 14 14 14 13 13 13 13 13 13 14 14 15 15 15 15 15 15 15 14 14 13 12 12 11 10 10 10 11 11 12 12 11 11 10 9 8 8